Regional Weather Roundup
Issued by NWS

Home | Current Version | Previous Version | Graphics & Text | Print | Product List | Glossary On
Versions: 1 2 3 4 5 6 7 8 9 10 11 12 13 14 15 16 17 18 19 20 21 22 23 24 25 26 27 28 29 30 31 32 33 34 35 36 37 38 39 40 41 42 43 44 45 46 47 48 49 50
000
ASUS43 KLOT 300000
RWRIL

ILLINOIS REGIONAL WEATHER ROUNDUP
NATIONAL WEATHER SERVICE CHICAGO/ROMEOVILLE IL
600 PM CST THU JAN 29 2015

NOTE: "FAIR" INDICATES FEW OR NO CLOUDS BELOW 12,000 FEET WITH NO
SIGNIFICANT WEATHER AND/OR OBSTRUCTIONS TO VISIBILITY.

* THESE STATIONS ARE NOT UNDER NWS QUALITY CONTROL. THEY ALSO MAY NOT
  REPORT WEATHER SUCH AS PRECIPITATION OR FOG.

ILZ001-002-007-009-015-016-024-300100-
NORTHWEST ILLINOIS

CITY           SKY/WX    TMP DP  RH WIND       PRES   REMARKS
MOLINE         CLOUDY    34  25  69 NW21G30   30.27R WCI  22
6HR MIN TEMP:  34; 6HR MAX TEMP:  36;

STERLING*      CLOUDY    36  27  69 NW10      30.22R WCI  28
$$

ILZ003-004-008-010-011-017-018-300100-
NORTH CENTRAL ILLINOIS

CITY           SKY/WX    TMP DP  RH WIND       PRES   REMARKS
ROCKFORD       CLOUDY    35  23  61 NW14      30.20R WCI  26
6HR MIN TEMP:  34; 6HR MAX TEMP:  36;

FREEPORT*      CLOUDY    33  25  70 NW10      30.21R WCI  25
DE KALB*       CLOUDY    33  23  68 NW15      30.17R WCI  22
$$

ILZ005-006-012>014-019>023-300100-
NORTHEAST ILLINOIS

CITY           SKY/WX    TMP DP  RH WIND       PRES   REMARKS
CHICAGO-OHARE  CLOUDY    34  24  67 NW13      30.14R WCI  25
6HR MIN TEMP:  33; 6HR MAX TEMP:  34;

CHICAGO-MIDWAY CLOUDY    37  25  61 NW20G25   30.15R WCI  27
6HR MIN TEMP:  35; 6HR MAX TEMP:  37;

AURORA         CLOUDY    35  26  69 NW13      30.17R WCI  26
6HR MIN TEMP:  34; 6HR MAX TEMP:  35;

WAUKEGAN       CLOUDY    34  22  61 NW14G24   30.13R WCI  25
6HR MIN TEMP:  33; 6HR MAX TEMP:  35;

DUPAGE AIRPORT CLOUDY    34  25  69 NW14      30.15R WCI  25
6HR MIN TEMP:  33; 6HR MAX TEMP:  35; 6HR PCP: TRACE;

WHEELING       CLOUDY    35  23  61 NW14G25   30.16R WCI  26
6HR MIN TEMP:  33; 6HR MAX TEMP:  35;

NORTHERLY ISL    N/A     35  25  67 NW12        N/A  WCI  27
$$

LMZ740>746-300100-
SOUTHERN LAKE MICHIGAN

STATION/POSITION SKY/WX   TEMP    WIND        PRES    VSBY  WAVE
                          AIR SEA DIR/SP/G                  HT/PER
                          (F)     (DEG/KT/KT) (MB)    (MI)  (FT/S)
WAUKEGAN HARBOR            35     320/ 16/ 30   N/A
HARRISON CRIB              35     310/ 16/ 20   N/A
BURNHAM HARBOR             36     330/ 16       N/A
CALUMET HARBOR             35     320/ 12/ 20   N/A
MICHIGAN CITY              34     290/ 20/ 24   N/A
$$

ILZ025>027-034>036-040-047-049-050-058-095>099-300100-
WEST-CENTRAL ILLINOIS

CITY           SKY/WX    TMP DP  RH WIND       PRES   REMARKS
QUINCY         CLOUDY    34  26  72 NW14      30.34R WCI  25
$$

ILZ028>032-037-038-041>044-048-051>054-059>061-300100-
CENTRAL ILLINOIS

CITY           SKY/WX    TMP DP  RH WIND       PRES   REMARKS
DECATUR        CLOUDY    35  32  88 W16G24    30.24R WCI  25
PEORIA         CLOUDY    36  28  73 NW15G29   30.26R WCI  27
6HR MIN TEMP:  36; 6HR MAX TEMP:  39; 6HR PCP: TRACE;

LINCOLN*       CLOUDY    36  32  86 W9G17     30.27R WCI  29
SPRINGFIELD    CLOUDY    36  28  73 NW16G24   30.28R WCI  26
6HR MIN TEMP:  36; 6HR MAX TEMP:  39; 6HR PCP: TRACE;

TAYLORVILLE    NOT AVBL
$$

ILZ033-039-045-046-055>057-062-063-300100-
EAST-CENTRAL ILLINOIS

CITY           SKY/WX    TMP DP  RH WIND       PRES   REMARKS
CHAMPAIGN      LGT RAIN  34  31  88 NW12      30.21R WCI  25
MATTOON        CLOUDY    35  31  85 NW15      30.21R WCI  25
$$

ILZ079-100>102-300100-
SOUTHWEST ILLINOIS

CITY           SKY/WX    TMP DP  RH WIND       PRES   REMARKS
ALTON          CLOUDY    37  28  70 NW20      30.31R WCI  27
BELLEVILLE     CLOUDY    39  31  71 NW18G25   30.30R WCI  30
CAHOKIA*       CLOUDY    40  31  70 NW16G33   30.32R
$$

ILZ064>066-069>071-074>076-080>082-084>086-088>090-092>094-300100-
SOUTH-CENTRAL ILLINOIS

CITY           SKY/WX    TMP DP  RH WIND       PRES   REMARKS
CARBONDALE     CLOUDY    40  32  73 NW7       30.29R
6HR MIN TEMP:  40; 6HR MAX TEMP:  43;

MARION         CLOUDY    41  34  75 NW15      30.29R
MT. VERNON     CLOUDY    37  32  81 NW5       30.28R WCI  34
$$

ILZ067-068-072-073-078-083-087-091-300100-
SOUTHEAST ILLINOIS

CITY           SKY/WX    TMP DP  RH WIND       PRES   REMARKS
LAWRENCEVILLE  CLOUDY    37  33  85 NW13      30.23R WCI  29
$$

ABBREVIATIONS USED IN REMARKS
   TC - TEMPERATURE IN CELSIUS
  WCI - WIND CHILL INDEX
   HX - HEAT INDEX
  VSB - VISIBILITY
$$



USA.gov is the U.S. government's official web portal to all federal, state and local government web resources and services.